| time (UTC) | temp C | wind direction | speed KPH | gust KPH | rain 1hr cm | rain 24hr cm | rain mn cm | humidity % | barometer mb |
| 20260503173603 | 17 | 5 | 0.0 | 3.2 | 0.00 | 0.03 | 0.00 | 65 | 1007.8 |
| 20260503173101 | 17 | 5 | 0.0 | 3.2 | 0.00 | 0.03 | 0.00 | 64 | 1007.8 |
| 20260503172836 | 18 | 328 | 0.0 | 1.6 | 0.00 | 0.03 | 0.00 | 64 | 1007.8 |
| 20260503172049 | 18 | 328 | 0.0 | 1.6 | 0.00 | 0.03 | 0.00 | 64 | 1007.8 |
| 20260503171543 | 18 | 328 | 0.0 | 1.6 | 0.00 | 0.03 | 0.00 | 64 | 1007.9 |
| 20260503171057 | 18 | 328 | 0.0 | 1.6 | 0.00 | 0.03 | 0.00 | 64 | 1007.9 |
| 20260503171049 | 18 | 328 | 0.0 | 1.6 | 0.00 | 0.03 | 0.00 | 64 | 1007.9 |
| 20260503151003 | 19 | 113 | 0.0 | 4.8 | 0.00 | 0.03 | 0.00 | 60 | 1008.0 |
| 20260503150504 | 20 | 70 | 0.0 | 4.8 | 0.00 | 0.03 | 0.00 | 59 | 1008.0 |
| 20260503131004 | 19 | 240 | 1.6 | 6.4 | 0.00 | 0.03 | 0.00 | 60 | 1008.3 |
| 20260503130503 | 19 | 284 | 0.0 | 3.2 | 0.00 | 0.03 | 0.00 | 60 | 1008.3 |
| 20260503110507 | 17 | 77 | 0.0 | 3.2 | 0.00 | 0.03 | 0.00 | 71 | 1008.6 |
| 20260503110241 | 17 | 155 | 0.0 | 3.2 | 0.00 | 0.03 | 0.00 | 71 | 1008.6 |
| 20260503100224 | 15 | 161 | 1.6 | 4.8 | 0.00 | 0.03 | 0.00 | 77 | 1008.6 |
| 20260503090441 | 14 | 248 | 0.0 | 4.8 | 0.00 | 0.03 | 0.00 | 79 | 1008.7 |
| 20260503090215 | 14 | 285 | 0.0 | 4.8 | 0.00 | 0.03 | 0.00 | 79 | 1008.8 |
| 20260503081416 | 13 | 136 | 0.0 | 6.4 | 0.00 | 0.03 | 0.00 | 83 | 1008.5 |
| 20260503080915 | 13 | 79 | 0.0 | 3.2 | 0.00 | 0.03 | 0.00 | 83 | 1008.5 |
| 20260503080415 | 13 | 161 | 0.0 | 3.2 | 0.00 | 0.03 | 0.00 | 83 | 1008.5 |
| 20260503072430 | 13 | 109 | 0.0 | 4.8 | 0.00 | 0.03 | 0.00 | 86 | 1008.6 |
| 20260503072421 | 13 | 107 | 0.0 | 4.8 | 0.00 | 0.03 | 0.00 | 86 | 1008.6 |
| 20260503071404 | 13 | 281 | 0.0 | 6.4 | 0.00 | 0.03 | 0.00 | 86 | 1008.5 |
| 20260503070902 | 13 | 167 | 0.0 | 6.4 | 0.00 | 0.03 | 0.00 | 87 | 1008.6 |
| 20260503070404 | 13 | 162 | 1.6 | 6.4 | 0.00 | 0.03 | 0.00 | 88 | 1008.5 |
| 20260503070141 | 12 | 290 | 1.6 | 6.4 | 0.00 | 0.03 | 0.00 | 88 | 1008.4 |
| 20260503054903 | 12 | 180 | 0.0 | 0.0 | 0.00 | 0.03 | 0.00 | 91 | 1008.3 |
| 20260503054405 | 12 | 180 | 0.0 | 6.4 | 0.00 | 0.03 | 0.00 | 90 | 1008.2 |
| 20260503054204 | 12 | 160 | 0.0 | 3.2 | 0.00 | 0.03 | 0.00 | 90 | 1008.2 |
| 20260503054157 | 12 | 180 | 0.0 | 6.4 | 0.00 | 0.03 | 0.00 | 90 | 1008.2 |
| 20260503053141 | 12 | 160 | 0.0 | 3.2 | 0.00 | 0.03 | 0.00 | 90 | 1008.1 |
| 20260503052642 | 12 | 166 | 0.0 | 1.6 | 0.00 | 0.03 | 0.00 | 90 | 1008.1 |
| 20260503051903 | 12 | 165 | 0.0 | 3.2 | 0.00 | 0.03 | 0.00 | 90 | 1008.0 |
| 20260503051403 | 12 | 165 | 0.0 | 3.2 | 0.00 | 0.03 | 0.00 | 90 | 1008.1 |
| 20260503050903 | 12 | 168 | 0.0 | 4.8 | 0.00 | 0.03 | 0.00 | 90 | 1008.0 |
| 20260503050403 | 12 | 142 | 0.0 | 4.8 | 0.00 | 0.03 | 0.00 | 90 | 1008.1 |
| 20260503045905 | 12 | 128 | 0.0 | 3.2 | 0.00 | 0.03 | 0.00 | 90 | 1008.1 |
| 20260503045403 | 12 | 128 | 0.0 | 3.2 | 0.00 | 0.03 | 0.00 | 90 | 1008.1 |
| 20260503044902 | 12 | 140 | 0.0 | 3.2 | 0.00 | 0.03 | 0.00 | 90 | 1008.1 |
| 20260503044403 | 12 | 140 | 0.0 | 1.6 | 0.00 | 0.03 | 0.00 | 90 | 1008.1 |
| 20260503043903 | 12 | 140 | 0.0 | 1.6 | 0.00 | 0.03 | 0.00 | 90 | 1008.0 |
| 20260503043645 | 12 | 140 | 0.0 | 3.2 | 0.00 | 0.03 | 0.00 | 90 | 1008.1 |
| 20260503042905 | 12 | 115 | 0.0 | 3.2 | 0.00 | 0.03 | 0.00 | 90 | 1008.1 |
| 20260503042404 | 12 | 155 | 0.0 | 3.2 | 0.00 | 0.03 | 0.00 | 90 | 1008.1 |
| 20260503041902 | 12 | 152 | 0.0 | 3.2 | 0.00 | 0.03 | 0.00 | 90 | 1008.0 |
| 20260503041405 | 12 | 149 | 0.0 | 1.6 | 0.00 | 0.03 | 0.00 | 90 | 1008.0 |
| 20260503040902 | 12 | 147 | 0.0 | 1.6 | 0.00 | 0.03 | 0.00 | 90 | 1008.0 |
| 20260503040403 | 12 | 134 | 0.0 | 1.6 | 0.00 | 0.03 | 0.00 | 89 | 1008.0 |
| 20260503035902 | 12 | 134 | 0.0 | 1.6 | 0.00 | 0.03 | 0.00 | 89 | 1008.1 |
| 20260503035645 | 12 | 134 | 0.0 | 1.6 | 0.00 | 0.03 | 0.00 | 89 | 1008.0 |
| 20260503034902 | 12 | 134 | 0.0 | 1.6 | 0.00 | 0.03 | 0.00 | 89 | 1008.1 |
| 20260503034402 | 12 | 134 | 0.0 | 1.6 | 0.00 | 0.03 | 0.00 | 89 | 1008.1 |
| 20260503033903 | 12 | 133 | 0.0 | 1.6 | 0.00 | 0.03 | 0.00 | 89 | 1008.2 |
| 20260503033405 | 12 | 133 | 0.0 | 3.2 | 0.00 | 0.03 | 0.00 | 89 | 1008.2 |
| 20260503032904 | 12 | 134 | 0.0 | 3.2 | 0.00 | 0.03 | 0.00 | 89 | 1008.2 |
| 20260503032403 | 12 | 180 | 0.0 | 3.2 | 0.00 | 0.03 | 0.00 | 89 | 1008.2 |
| 20260503031902 | 12 | 180 | 0.0 | 3.2 | 0.00 | 0.03 | 0.00 | 89 | 1008.2 |
| 20260503031402 | 12 | 283 | 0.0 | 3.2 | 0.00 | 0.03 | 0.00 | 89 | 1008.2 |
| 20260503030906 | 12 | 286 | 0.0 | 0.0 | 0.00 | 0.03 | 0.00 | 89 | 1008.2 |
| 20260503030402 | 13 | 286 | 0.0 | 0.0 | 0.00 | 0.03 | 0.00 | 89 | 1008.3 |
| 20260503025905 | 13 | 286 | 0.0 | 0.0 | 0.00 | 0.03 | 0.00 | 89 | 1008.3 |
| 20260503025404 | 13 | 286 | 0.0 | 0.0 | 0.00 | 0.03 | 0.00 | 89 | 1008.2 |
| 20260503024902 | 13 | 286 | 0.0 | 0.0 | 0.00 | 0.03 | 0.00 | 89 | 1008.3 |
| 20260503024423 | 13 | 286 | 0.0 | 0.0 | 0.00 | 0.03 | 0.00 | 89 | 1008.2 |
| 20260503024415 | 13 | 286 | 0.0 | 0.0 | 0.00 | 0.03 | 0.00 | 89 | 1008.2 |
| 20260503023405 | 13 | 286 | 0.0 | 0.0 | 0.00 | 0.03 | 0.00 | 89 | 1008.3 |
| 20260503022904 | 13 | 286 | 0.0 | 0.0 | 0.00 | 0.03 | 0.00 | 89 | 1008.4 |
| 20260503022403 | 13 | 287 | 0.0 | 0.0 | 0.00 | 0.03 | 0.00 | 89 | 1008.4 |
| 20260503021903 | 13 | 287 | 0.0 | 1.6 | 0.00 | 0.03 | 0.00 | 89 | 1008.4 |
| 20260503021401 | 13 | 287 | 0.0 | 1.6 | 0.00 | 0.03 | 0.00 | 89 | 1008.5 |
| 20260503021142 | 13 | 33 | 0.0 | 3.2 | 0.00 | 0.03 | 0.00 | 90 | 1008.6 |
| 20260503020641 | 13 | 33 | 0.0 | 3.2 | 0.00 | 0.03 | 0.00 | 90 | 1008.6 |
| 20260503015902 | 13 | 28 | 0.0 | 3.2 | 0.00 | 0.03 | 0.00 | 90 | 1008.6 |
| 20260503015402 | 13 | 184 | 0.0 | 1.6 | 0.00 | 0.03 | 0.00 | 90 | 1008.6 |
| 20260503014903 | 13 | 184 | 0.0 | 1.6 | 0.00 | 0.03 | 0.00 | 90 | 1008.7 |
| 20260503014641 | 13 | 184 | 0.0 | 3.2 | 0.00 | 0.03 | 0.00 | 90 | 1008.7 |
| 20260503013906 | 13 | 184 | 0.0 | 3.2 | 0.00 | 0.03 | 0.00 | 90 | 1008.7 |
| 20260503013403 | 13 | 184 | 0.0 | 3.2 | 0.00 | 0.03 | 0.00 | 90 | 1008.8 |
| 20260503012902 | 13 | 184 | 0.0 | 3.2 | 0.00 | 0.03 | 0.00 | 89 | 1008.8 |
| 20260503012402 | 13 | 185 | 0.0 | 3.2 | 0.00 | 0.03 | 0.00 | 89 | 1008.9 |
| 20260503011902 | 13 | 185 | 0.0 | 3.2 | 0.00 | 0.03 | 0.00 | 89 | 1008.9 |
| 20260503011405 | 13 | 166 | 0.0 | 6.4 | 0.00 | 0.03 | 0.00 | 90 | 1008.9 |
| 20260503011144 | 13 | 166 | 1.6 | 6.4 | 0.00 | 0.03 | 0.00 | 89 | 1008.9 |
| 20260503010403 | 13 | 169 | 0.0 | 4.8 | 0.00 | 0.03 | 0.00 | 89 | 1009.0 |
| 20260503005902 | 13 | 168 | 0.0 | 3.2 | 0.00 | 0.03 | 0.00 | 89 | 1009.0 |
| 20260503005402 | 13 | 169 | 0.0 | 3.2 | 0.00 | 0.03 | 0.00 | 89 | 1009.0 |
| 20260503004904 | 13 | 168 | 0.0 | 3.2 | 0.00 | 0.03 | 0.00 | 89 | 1009.1 |
| 20260503004404 | 13 | 161 | 0.0 | 3.2 | 0.00 | 0.03 | 0.00 | 89 | 1009.1 |
| 20260503003901 | 13 | 161 | 0.0 | 6.4 | 0.00 | 0.03 | 0.00 | 89 | 1009.1 |
| 20260503003402 | 13 | 185 | 0.0 | 6.4 | 0.00 | 0.03 | 0.00 | 89 | 1009.1 |
| 20260503002902 | 13 | 178 | 0.0 | 1.6 | 0.00 | 0.03 | 0.00 | 88 | 1009.2 |
| 20260503002702 | 13 | 178 | 0.0 | 1.6 | 0.00 | 0.03 | 0.00 | 88 | 1009.2 |
| 20260503002656 | 13 | 178 | 0.0 | 3.2 | 0.00 | 0.03 | 0.00 | 88 | 1009.3 |
| 20260503001404 | 13 | 178 | 0.0 | 3.2 | 0.00 | 0.03 | 0.00 | 88 | 1009.2 |
| 20260503000903 | 13 | 178 | 0.0 | 3.2 | 0.00 | 0.03 | 0.00 | 88 | 1009.3 |
| 20260503000403 | 13 | 177 | 0.0 | 4.8 | 0.00 | 0.03 | 0.00 | 89 | 1009.3 |
| 20260502235902 | 13 | 187 | 0.0 | 4.8 | 0.00 | 0.03 | 0.00 | 89 | 1009.3 |
| 20260502235403 | 13 | 116 | 0.0 | 3.2 | 0.00 | 0.03 | 0.00 | 89 | 1009.4 |
| 20260502234905 | 13 | 138 | 0.0 | 3.2 | 0.00 | 0.03 | 0.00 | 90 | 1009.5 |
| 20260502234403 | 13 | 138 | 0.0 | 3.2 | 0.00 | 0.03 | 0.00 | 90 | 1009.6 |
| 20260502233905 | 13 | 138 | 0.0 | 3.2 | 0.00 | 0.03 | 0.00 | 89 | 1009.5 |
| 20260502233423 | 13 | 140 | 0.0 | 4.8 | 0.00 | 0.03 | 0.00 | 89 | 1009.6 |
| 20260502233415 | 13 | 142 | 0.0 | 4.8 | 0.00 | 0.03 | 0.00 | 89 | 1009.5 |
| 20260502232403 | 13 | 108 | 1.6 | 4.8 | 0.00 | 0.03 | 0.00 | 89 | 1009.5 |
| 20260502231902 | 13 | 171 | 1.6 | 4.8 | 0.00 | 0.03 | 0.00 | 89 | 1009.5 |
| 20260502231406 | 13 | 132 | 0.0 | 6.4 | 0.00 | 0.03 | 0.00 | 89 | 1009.6 |
| 20260502231139 | 13 | 58 | 0.0 | 6.4 | 0.00 | 0.03 | 0.00 | 89 | 1009.6 |
| 20260502230401 | 13 | 142 | 0.0 | 4.8 | 0.00 | 0.03 | 0.00 | 89 | 1009.7 |
| 20260502225904 | 13 | 191 | 0.0 | 4.8 | 0.00 | 0.03 | 0.03 | 89 | 1009.6 |
| 20260502225402 | 13 | 105 | 1.6 | 6.4 | 0.00 | 0.03 | 0.03 | 89 | 1009.6 |
| 20260502224905 | 13 | 175 | 1.6 | 6.4 | 0.00 | 0.03 | 0.03 | 89 | 1009.5 |
| 20260502224403 | 13 | 154 | 1.6 | 6.4 | 0.00 | 0.03 | 0.03 | 89 | 1009.6 |
| 20260502223902 | 13 | 145 | 0.0 | 4.8 | 0.00 | 0.03 | 0.03 | 89 | 1009.6 |
| 20260502223403 | 13 | 130 | 0.0 | 4.8 | 0.00 | 0.03 | 0.03 | 89 | 1009.7 |
| 20260502222902 | 13 | 207 | 0.0 | 6.4 | 0.00 | 0.03 | 0.03 | 89 | 1009.6 |
| 20260502222403 | 13 | 103 | 1.6 | 8.0 | 0.00 | 0.03 | 0.03 | 89 | 1009.6 |
| 20260502221904 | 13 | 181 | 1.6 | 8.0 | 0.00 | 0.03 | 0.03 | 88 | 1009.6 |
| 20260502221403 | 13 | 136 | 0.0 | 6.4 | 0.00 | 0.03 | 0.03 | 88 | 1009.7 |
| 20260502220904 | 13 | 142 | 0.0 | 4.8 | 0.00 | 0.03 | 0.03 | 88 | 1009.6 |
| 20260502220402 | 13 | 142 | 0.0 | 4.8 | 0.00 | 0.03 | 0.03 | 88 | 1009.6 |
| 20260502215902 | 13 | 57 | 0.0 | 1.6 | 0.00 | 0.03 | 0.03 | 87 | 1009.6 |
| 20260502215641 | 14 | 57 | 0.0 | 3.2 | 0.00 | 0.03 | 0.03 | 87 | 1009.6 |
| 20260502214903 | 14 | 5 | 0.0 | 3.2 | 0.00 | 0.03 | 0.03 | 87 | 1009.6 |
| 20260502214637 | 14 | 12 | 0.0 | 4.8 | 0.00 | 0.03 | 0.03 | 87 | 1009.5 |
| 20260502213856 | 14 | 55 | 1.6 | 4.8 | 0.00 | 0.03 | 0.03 | 86 | 1009.7 |
| 20260502213350 | 14 | 184 | 1.6 | 4.8 | 0.00 | 0.03 | 0.03 | 86 | 1010.1 |
| 20260502212842 | 14 | 182 | 1.6 | 6.4 | 0.00 | 0.03 | 0.03 | 86 | 1010.2 |
| 20260502212346 | 14 | 102 | 1.6 | 6.4 | 0.00 | 0.03 | 0.03 | 86 | 1010.3 |
| 20260502211843 | 14 | 107 | 0.0 | 3.2 | 0.00 | 0.03 | 0.03 | 85 | 1010.3 |
| 20260502211344 | 15 | 72 | 0.0 | 3.2 | 0.00 | 0.03 | 0.03 | 85 | 1010.3 |
| 20260502210842 | 15 | 74 | 0.0 | 4.8 | 0.00 | 0.03 | 0.03 | 85 | 1010.4 |
| 20260502210616 | 15 | 83 | 0.0 | 4.8 | 0.00 | 0.03 | 0.03 | 85 | 1010.3 |
| 20260502205841 | 15 | 103 | 0.0 | 3.2 | 0.00 | 0.03 | 0.03 | 84 | 1010.2 |
| 20260502205340 | 15 | 190 | 0.0 | 3.2 | 0.00 | 0.03 | 0.03 | 84 | 1010.2 |
| 20260502204839 | 15 | 200 | 0.0 | 3.2 | 0.00 | 0.03 | 0.03 | 84 | 1010.3 |
| 20260502204619 | 15 | 198 | 0.0 | 3.2 | 0.00 | 0.03 | 0.03 | 84 | 1010.4 |
| 20260502203837 | 15 | 98 | 0.0 | 6.4 | 0.00 | 0.03 | 0.03 | 83 | 1010.5 |
| 20260502203615 | 15 | 92 | 0.0 | 6.4 | 0.00 | 0.03 | 0.03 | 83 | 1010.4 |
| 20260502202838 | 15 | 87 | 0.0 | 4.8 | 0.00 | 0.03 | 0.03 | 83 | 1010.5 |
| 20260502202335 | 15 | 38 | 0.0 | 6.4 | 0.00 | 0.03 | 0.03 | 82 | 1010.5 |
| 20260502201834 | 15 | 222 | 1.6 | 6.4 | 0.00 | 0.03 | 0.03 | 82 | 1010.7 |
| 20260502201333 | 15 | 187 | 1.6 | 6.4 | 0.00 | 0.03 | 0.03 | 82 | 1010.7 |
| 20260502200832 | 15 | 127 | 0.0 | 3.2 | 0.00 | 0.03 | 0.03 | 82 | 1010.5 |
| 20260502200333 | 15 | 110 | 0.0 | 3.2 | 0.00 | 0.03 | 0.03 | 82 | 1010.6 |
| 20260502195832 | 15 | 113 | 0.0 | 1.6 | 0.00 | 0.03 | 0.03 | 82 | 1010.6 |
| 20260502195333 | 15 | 113 | 0.0 | 1.6 | 0.00 | 0.03 | 0.03 | 82 | 1010.6 |
| 20260502194832 | 15 | 113 | 0.0 | 3.2 | 0.00 | 0.03 | 0.03 | 82 | 1010.6 |
| 20260502194334 | 15 | 113 | 0.0 | 3.2 | 0.00 | 0.03 | 0.03 | 82 | 1010.4 |
| 20260502193831 | 15 | 123 | 0.0 | 3.2 | 0.00 | 0.03 | 0.03 | 83 | 1010.6 |
| 20260502193331 | 15 | 184 | 0.0 | 3.2 | 0.00 | 0.03 | 0.03 | 83 | 1010.5 |
| 20260502192833 | 15 | 214 | 0.0 | 3.2 | 0.00 | 0.03 | 0.03 | 84 | 1010.5 |
| 20260502192333 | 15 | 121 | 0.0 | 4.8 | 0.00 | 0.03 | 0.03 | 86 | 1010.5 |
| 20260502191834 | 15 | 97 | 0.0 | 4.8 | 0.00 | 0.03 | 0.03 | 86 | 1010.5 |
| 20260502191330 | 15 | 108 | 0.0 | 3.2 | 0.00 | 0.03 | 0.03 | 87 | 1010.6 |
| 20260502190832 | 15 | 109 | 0.0 | 0.0 | 0.03 | 0.03 | 0.03 | 87 | 1010.5 |
| 20260502190330 | 15 | 109 | 0.0 | 0.0 | 0.03 | 0.03 | 0.03 | 87 | 1010.6 |
| 20260502185834 | 15 | 109 | 0.0 | 0.0 | 0.03 | 0.03 | 0.03 | 86 | 1010.6 |
| 20260502185337 | 15 | 109 | 0.0 | 0.0 | 0.03 | 0.03 | 0.03 | 86 | 1010.7 |
| 20260502184833 | 15 | 109 | 0.0 | 0.0 | 0.03 | 0.03 | 0.03 | 86 | 1010.8 |
| 20260502184326 | 15 | 109 | 0.0 | 0.0 | 0.03 | 0.03 | 0.03 | 86 | 1010.7 |
| 20260502184109 | 15 | 109 | 0.0 | 1.6 | 0.03 | 0.03 | 0.03 | 85 | 1010.8 |
| 20260502183322 | 16 | 109 | 0.0 | 1.6 | 0.03 | 0.03 | 0.03 | 85 | 1010.7 |
| 20260502182822 | 16 | 105 | 0.0 | 0.0 | 0.03 | 0.03 | 0.03 | 84 | 1010.8 |
| 20260502182324 | 16 | 105 | 0.0 | 0.0 | 0.03 | 0.03 | 0.03 | 84 | 1010.9 |
| 20260502181822 | 16 | 105 | 0.0 | 1.6 | 0.03 | 0.03 | 0.03 | 83 | 1010.9 |
| 20260502181322 | 16 | 105 | 0.0 | 1.6 | 0.03 | 0.03 | 0.00 | 82 | 1010.9 |
| 20260502180820 | 16 | 105 | 0.0 | 1.6 | 0.00 | 0.00 | 0.00 | 81 | 1011.1 |
| 20260502180318 | 16 | 105 | 0.0 | 0.0 | 0.00 | 0.00 | 0.00 | 80 | 1011.1 |